Time,TemperatureF,DewpointF,PressureIn,WindDirection,WindDirectionDegrees,WindSpeedMPH,WindSpeedGustMPH,Humidity,HourlyPrecipIn,Conditions,Clouds,dailyrainin,SolarRadiationWatts/m^2,SoftwareType,DateUTC
2013-05-05 00:00:00,66.5,66.5,30.01,NNW,334,3.0,4.0,100,0.00,,,0.00,0,Wunderground v.1.15,2013-05-05 10:00:00,
2013-05-05 00:10:00,66.5,66.2,30.01,NNW,335,2.0,2.0,99,0.00,,,0.00,0,Wunderground v.1.15,2013-05-05 10:10:00,
2013-05-05 00:15:00,66.6,66.3,30.01,NNW,336,2.0,4.0,99,0.00,,,0.00,0,Wunderground v.1.15,2013-05-05 10:15:00,
2013-05-05 00:20:00,66.6,66.0,30.01,NNW,336,1.0,4.0,98,0.00,,,0.00,0,Wunderground v.1.15,2013-05-05 10:20:00,
2013-05-05 00:25:00,66.6,66.0,30.01,NNW,336,2.0,4.0,98,0.00,,,0.00,0,Wunderground v.1.15,2013-05-05 10:25:00,
2013-05-05 00:30:00,66.6,66.0,30.00,NNW,336,3.0,3.0,98,0.00,,,0.00,0,Wunderground v.1.15,2013-05-05 10:30:00,
2013-05-05 00:35:00,66.5,65.6,30.00,NNW,336,3.0,3.0,97,0.00,,,0.00,0,Wunderground v.1.15,2013-05-05 10:35:00,
2013-05-05 00:40:00,66.6,65.7,30.00,NNW,335,3.0,3.0,97,0.00,,,0.00,0,Wunderground v.1.15,2013-05-05 10:40:00,
2013-05-05 00:50:00,66.6,65.7,30.00,NW,325,3.0,3.0,97,0.00,,,0.00,0,Wunderground v.1.15,2013-05-05 10:50:00,
2013-05-05 00:55:00,66.6,65.7,30.00,NW,325,3.0,3.0,97,0.00,,,0.00,0,Wunderground v.1.15,2013-05-05 10:55:00,
2013-05-05 01:00:00,66.5,65.6,30.00,NW,325,1.0,1.0,97,0.00,,,0.00,0,Wunderground v.1.15,2013-05-05 11:00:00,
2013-05-05 01:10:00,66.1,65.5,30.00,NW,325,0.0,0.0,98,0.00,,,0.00,0,Wunderground v.1.15,2013-05-05 11:10:00,
2013-05-05 01:15:00,66.0,65.4,30.00,NW,325,0.0,0.0,98,0.00,,,0.00,0,Wunderground v.1.15,2013-05-05 11:15:00,
2013-05-05 01:20:00,65.9,65.6,29.99,NW,325,0.0,0.0,99,0.00,,,0.00,0,Wunderground v.1.15,2013-05-05 11:20:00,
2013-05-05 01:25:00,65.9,65.6,29.99,NW,325,0.0,0.0,99,0.00,,,0.00,0,Wunderground v.1.15,2013-05-05 11:25:00,
2013-05-05 01:30:00,65.8,65.5,29.99,NW,325,1.0,2.0,99,0.00,,,0.00,0,Wunderground v.1.15,2013-05-05 11:30:00,
2013-05-05 01:35:00,65.8,65.8,29.99,NW,325,2.0,2.0,100,0.00,,,0.00,0,Wunderground v.1.15,2013-05-05 11:35:00,
2013-05-05 01:40:00,65.8,65.8,29.98,NW,325,2.0,2.0,100,0.00,,,0.00,0,Wunderground v.1.15,2013-05-05 11:40:00,
2013-05-05 01:45:00,65.7,65.7,29.98,NW,325,2.0,2.0,100,0.00,,,0.00,0,Wunderground v.1.15,2013-05-05 11:45:00,
2013-05-05 01:55:00,65.7,65.7,29.98,NW,325,2.0,2.0,100,0.00,,,0.00,0,Wunderground v.1.15,2013-05-05 11:55:00,
2013-05-05 02:00:00,65.7,65.7,29.98,NW,325,1.0,1.0,100,0.00,,,0.00,0,Wunderground v.1.15,2013-05-05 12:00:00,
2013-05-05 02:10:00,65.7,65.7,29.98,NW,325,0.0,0.0,100,0.00,,,0.00,0,Wunderground v.1.15,2013-05-05 12:10:00,
2013-05-05 02:15:00,65.6,65.6,29.98,NW,325,0.0,0.0,100,0.00,,,0.00,0,Wunderground v.1.15,2013-05-05 12:15:00,
2013-05-05 02:20:00,65.6,65.6,29.98,NW,325,0.0,0.0,100,0.00,,,0.00,0,Wunderground v.1.15,2013-05-05 12:20:00,
2013-05-05 02:30:00,65.6,65.6,29.97,NW,325,1.0,3.0,100,0.00,,,0.00,0,Wunderground v.1.15,2013-05-05 12:30:00,
2013-05-05 02:35:00,65.7,65.7,29.97,NW,325,2.0,3.0,100,0.00,,,0.00,0,Wunderground v.1.15,2013-05-05 12:35:00,
2013-05-05 02:40:00,65.6,65.6,29.97,NW,325,2.0,2.0,100,0.00,,,0.00,0,Wunderground v.1.15,2013-05-05 12:40:00,
2013-05-05 02:45:00,65.5,65.5,29.97,NW,325,2.0,3.0,100,0.00,,,0.00,0,Wunderground v.1.15,2013-05-05 12:45:00,
2013-05-05 02:50:00,65.5,65.5,29.97,NW,325,2.0,2.0,100,0.00,,,0.00,0,Wunderground v.1.15,2013-05-05 12:50:00,
2013-05-05 02:55:00,65.5,65.5,29.97,NW,325,1.0,2.0,100,0.00,,,0.00,0,Wunderground v.1.15,2013-05-05 12:55:00,
2013-05-05 03:00:00,65.5,65.5,29.97,NW,325,1.0,1.0,100,0.00,,,0.00,0,Wunderground v.1.15,2013-05-05 13:00:00,
2013-05-05 03:10:00,65.6,65.6,29.97,NW,325,2.0,3.0,100,0.00,,,0.00,0,Wunderground v.1.15,2013-05-05 13:10:00,
2013-05-05 03:15:00,65.6,65.6,29.97,NW,325,3.0,3.0,100,0.00,,,0.00,0,Wunderground v.1.15,2013-05-05 13:15:00,
2013-05-05 03:20:00,65.7,65.7,29.97,NW,325,2.0,2.0,100,0.00,,,0.00,0,Wunderground v.1.15,2013-05-05 13:20:00,
2013-05-05 03:25:00,65.7,65.7,29.97,NW,326,1.0,2.0,100,0.00,,,0.00,0,Wunderground v.1.15,2013-05-05 13:25:00,
2013-05-05 03:30:00,65.7,65.7,29.97,NW,326,2.0,2.0,100,0.00,,,0.00,0,Wunderground v.1.15,2013-05-05 13:30:00,
2013-05-05 03:35:00,65.7,65.7,29.97,NW,326,1.0,2.0,100,0.00,,,0.00,0,Wunderground v.1.15,2013-05-05 13:35:00,
2013-05-05 03:45:00,65.7,65.7,29.97,NW,326,0.0,1.0,100,0.00,,,0.00,0,Wunderground v.1.15,2013-05-05 13:45:00,
2013-05-05 03:50:00,65.7,65.7,29.97,NW,326,0.0,0.0,100,0.00,,,0.00,0,Wunderground v.1.15,2013-05-05 13:50:00,
2013-05-05 03:55:00,65.8,65.8,29.97,NW,326,0.0,0.0,100,0.00,,,0.00,0,Wunderground v.1.15,2013-05-05 13:55:00,
2013-05-05 04:00:00,65.7,65.7,29.97,NW,326,0.0,0.0,100,0.00,,,0.00,0,Wunderground v.1.15,2013-05-05 14:00:00,
2013-05-05 04:10:00,65.6,65.6,29.97,NW,325,0.0,0.0,100,0.00,,,0.00,0,Wunderground v.1.15,2013-05-05 14:10:00,
2013-05-05 04:15:00,65.7,65.7,29.98,NW,326,0.0,0.0,100,0.00,,,0.00,0,Wunderground v.1.15,2013-05-05 14:15:00,
2013-05-05 04:20:00,65.7,65.7,29.98,NW,326,0.0,0.0,100,0.00,,,0.00,0,Wunderground v.1.15,2013-05-05 14:20:00,
2013-05-05 04:30:00,65.7,65.7,29.98,NW,326,0.0,0.0,100,0.00,,,0.00,0,Wunderground v.1.15,2013-05-05 14:30:00,
2013-05-05 04:35:00,65.6,65.6,29.98,NW,326,1.0,2.0,100,0.00,,,0.00,0,Wunderground v.1.15,2013-05-05 14:35:00,
2013-05-05 04:40:00,65.6,65.6,29.98,NW,326,2.0,2.0,100,0.00,,,0.00,0,Wunderground v.1.15,2013-05-05 14:40:00,
2013-05-05 04:45:00,65.6,65.6,29.98,NW,326,1.0,2.0,100,0.00,,,0.00,0,Wunderground v.1.15,2013-05-05 14:45:00,
2013-05-05 04:50:00,65.7,65.7,29.98,NW,326,1.0,3.0,100,0.00,,,0.00,0,Wunderground v.1.15,2013-05-05 14:50:00,
2013-05-05 04:55:00,65.7,65.7,29.99,NW,325,1.0,3.0,100,0.00,,,0.00,0,Wunderground v.1.15,2013-05-05 14:55:00,
2013-05-05 05:00:00,65.7,65.7,29.99,NW,326,2.0,2.0,100,0.00,,,0.00,0,Wunderground v.1.15,2013-05-05 15:00:00,
2013-05-05 05:10:00,65.6,65.6,29.99,NW,326,3.0,3.0,100,0.00,,,0.00,0,Wunderground v.1.15,2013-05-05 15:10:00,
2013-05-05 05:15:00,65.6,65.6,29.99,NW,326,2.0,3.0,100,0.00,,,0.00,0,Wunderground v.1.15,2013-05-05 15:15:00,
2013-05-05 05:20:00,65.6,65.6,29.99,NW,326,2.0,2.0,100,0.00,,,0.00,0,Wunderground v.1.15,2013-05-05 15:20:00,
2013-05-05 05:30:00,65.7,65.7,29.99,NW,326,2.0,2.0,100,0.00,,,0.00,0,Wunderground v.1.15,2013-05-05 15:30:00,
2013-05-05 05:35:00,65.8,65.8,29.99,NW,326,2.0,2.0,100,0.00,,,0.00,0,Wunderground v.1.15,2013-05-05 15:35:00,
2013-05-05 05:45:00,65.8,65.8,29.99,NW,326,1.0,2.0,100,0.00,,,0.00,0,Wunderground v.1.15,2013-05-05 15:45:00,
2013-05-05 05:50:00,65.8,65.8,29.99,NW,326,2.0,3.0,100,0.00,,,0.00,0,Wunderground v.1.15,2013-05-05 15:50:00,
2013-05-05 05:55:00,65.8,65.8,29.99,NW,326,1.0,3.0,100,0.00,,,0.00,5,Wunderground v.1.15,2013-05-05 15:55:00,
2013-05-05 06:00:00,65.8,65.8,29.99,NW,326,0.0,0.0,100,0.00,,,0.00,9,Wunderground v.1.15,2013-05-05 16:00:00,
2013-05-05 06:10:00,65.8,65.8,30.00,NW,326,0.0,2.0,100,0.00,,,0.00,12,Wunderground v.1.15,2013-05-05 16:10:00,
2013-05-05 06:15:00,65.9,65.9,30.00,NW,326,2.0,2.0,100,0.00,,,0.00,23,Wunderground v.1.15,2013-05-05 16:15:00,
2013-05-05 06:20:00,65.9,65.9,30.00,NW,326,2.0,2.0,100,0.00,,,0.00,30,Wunderground v.1.15,2013-05-05 16:20:00,
2013-05-05 06:25:00,66.0,66.0,30.00,NW,326,2.0,2.0,100,0.00,,,0.00,39,Wunderground v.1.15,2013-05-05 16:25:00,
2013-05-05 06:30:00,66.1,66.1,30.00,NW,326,2.0,2.0,100,0.00,,,0.00,51,Wunderground v.1.15,2013-05-05 16:30:00,
2013-05-05 06:35:00,66.2,66.2,30.00,NW,326,1.0,2.0,100,0.00,,,0.00,54,Wunderground v.1.15,2013-05-05 16:35:00,
2013-05-05 06:45:00,66.6,66.6,30.01,NW,326,0.0,0.0,100,0.00,,,0.00,107,Wunderground v.1.15,2013-05-05 16:45:00,
2013-05-05 06:50:00,66.7,66.7,30.01,NW,326,0.0,0.0,100,0.00,,,0.00,127,Wunderground v.1.15,2013-05-05 16:50:00,
2013-05-05 07:00:00,67.1,67.1,30.02,NW,326,1.0,1.0,100,0.00,,,0.00,169,Wunderground v.1.15,2013-05-05 17:00:00,
2013-05-05 07:10:00,67.5,67.5,30.02,NW,326,1.0,1.0,100,0.00,,,0.00,153,Wunderground v.1.15,2013-05-05 17:10:00,
2013-05-05 07:15:00,67.6,67.6,30.03,NW,326,1.0,1.0,100,0.00,,,0.00,148,Wunderground v.1.15,2013-05-05 17:15:00,
2013-05-05 07:25:00,68.0,68.0,30.02,NW,326,0.0,1.0,100,0.00,,,0.00,128,Wunderground v.1.15,2013-05-05 17:25:00,
2013-05-05 07:30:00,68.2,68.2,30.02,NW,326,0.0,1.0,100,0.00,,,0.00,142,Wunderground v.1.15,2013-05-05 17:30:00,
2013-05-05 07:35:00,68.5,68.5,30.02,NW,326,1.0,2.0,100,0.00,,,0.00,141,Wunderground v.1.15,2013-05-05 17:35:00,
2013-05-05 07:40:00,68.6,68.6,30.03,NW,326,1.0,1.0,100,0.00,,,0.00,165,Wunderground v.1.15,2013-05-05 17:40:00,
2013-05-05 07:45:00,68.7,68.4,30.02,NW,325,1.0,2.0,99,0.00,,,0.00,185,Wunderground v.1.15,2013-05-05 17:45:00,
2013-05-05 07:50:00,68.6,68.3,30.03,NW,325,1.0,1.0,99,0.00,,,0.00,186,Wunderground v.1.15,2013-05-05 17:50:00,
2013-05-05 07:55:00,68.7,68.4,30.03,NW,325,0.0,1.0,99,0.00,,,0.00,176,Wunderground v.1.15,2013-05-05 17:55:00,
2013-05-05 08:00:00,68.8,68.8,30.03,NW,325,0.0,0.0,100,0.00,,,0.00,171,Wunderground v.1.15,2013-05-05 18:00:00,
2013-05-05 08:10:00,69.0,68.7,30.03,NW,325,0.0,0.0,99,0.00,,,0.00,135,Wunderground v.1.15,2013-05-05 18:10:00,
2013-05-05 08:15:00,69.2,68.9,30.03,NW,325,0.0,0.0,99,0.00,,,0.00,123,Wunderground v.1.15,2013-05-05 18:15:00,
2013-05-05 08:20:00,69.2,68.9,30.03,NW,325,0.0,0.0,99,0.00,,,0.00,132,Wunderground v.1.15,2013-05-05 18:20:00,
2013-05-05 08:25:00,69.3,69.0,30.03,NW,325,0.0,0.0,99,0.00,,,0.00,132,Wunderground v.1.15,2013-05-05 18:25:00,
2013-05-05 08:30:00,69.3,69.0,30.03,NW,325,0.0,0.0,99,0.00,,,0.00,123,Wunderground v.1.15,2013-05-05 18:30:00,
2013-05-05 08:35:00,69.5,69.2,30.03,NW,325,0.0,0.0,99,0.00,,,0.00,120,Wunderground v.1.15,2013-05-05 18:35:00,
2013-05-05 08:40:00,69.6,69.0,30.04,NW,325,0.0,0.0,98,0.00,,,0.00,137,Wunderground v.1.15,2013-05-05 18:40:00,
2013-05-05 08:45:00,69.7,69.1,30.04,NW,325,0.0,1.0,98,0.00,,,0.00,135,Wunderground v.1.15,2013-05-05 18:45:00,
2013-05-05 08:55:00,69.8,69.2,30.04,NW,325,0.0,2.0,98,0.00,,,0.00,142,Wunderground v.1.15,2013-05-05 18:55:00,
2013-05-05 09:00:00,69.8,69.2,30.04,NNW,329,1.0,4.0,98,0.00,,,0.00,135,Wunderground v.1.15,2013-05-05 19:00:00,
2013-05-05 09:10:00,69.7,69.1,30.04,NNW,329,1.0,2.0,98,0.00,,,0.00,58,Wunderground v.1.15,2013-05-05 19:10:00,
2013-05-05 09:15:00,69.5,68.9,30.04,NNW,329,1.0,2.0,98,0.00,,,0.01,44,Wunderground v.1.15,2013-05-05 19:15:00,
2013-05-05 09:20:00,69.3,69.0,30.04,NNW,331,1.0,3.0,99,0.00,,,0.01,49,Wunderground v.1.15,2013-05-05 19:20:00,
2013-05-05 09:25:00,68.6,68.0,30.04,SE,128,2.0,3.0,98,1.14,,,0.08,72,Wunderground v.1.15,2013-05-05 19:25:00,
2013-05-05 09:35:00,68.3,68.3,30.05,SE,128,0.0,1.0,100,0.15,,,0.11,149,Wunderground v.1.15,2013-05-05 19:35:00,
2013-05-05 09:40:00,68.5,68.5,30.04,SE,128,0.0,0.0,100,0.08,,,0.12,211,Wunderground v.1.15,2013-05-05 19:40:00,
2013-05-05 09:45:00,68.6,68.6,30.04,SE,128,1.0,2.0,100,0.08,,,0.12,295,Wunderground v.1.15,2013-05-05 19:45:00,
2013-05-05 09:50:00,68.7,68.7,30.04,SE,128,1.0,1.0,100,0.05,,,0.12,285,Wunderground v.1.15,2013-05-05 19:50:00,
2013-05-05 09:55:00,68.7,68.7,30.04,SE,128,2.0,2.0,100,0.04,,,0.12,185,Wunderground v.1.15,2013-05-05 19:55:00,
2013-05-05 10:00:00,68.6,68.6,30.04,SE,128,1.0,1.0,100,0.00,,,0.12,118,Wunderground v.1.15,2013-05-05 20:00:00,
2013-05-05 10:10:00,68.4,68.4,30.04,SE,128,1.0,1.0,100,0.00,,,0.13,156,Wunderground v.1.15,2013-05-05 20:10:00,
2013-05-05 10:15:00,68.1,68.1,30.04,SE,128,0.0,1.0,100,0.00,,,0.13,183,Wunderground v.1.15,2013-05-05 20:15:00,
2013-05-05 10:20:00,68.0,68.0,30.03,SE,128,1.0,2.0,100,0.00,,,0.13,218,Wunderground v.1.15,2013-05-05 20:20:00,
2013-05-05 10:25:00,68.0,68.0,30.03,NE,35,2.0,4.0,100,0.00,,,0.13,223,Wunderground v.1.15,2013-05-05 20:25:00,
2013-05-05 10:30:00,67.9,67.9,30.03,NNE,27,3.0,3.0,100,0.00,,,0.13,211,Wunderground v.1.15,2013-05-05 20:30:00,
2013-05-05 10:40:00,68.1,68.1,30.03,NNW,327,3.0,4.0,100,0.00,,,0.13,253,Wunderground v.1.15,2013-05-05 20:40:00,
2013-05-05 10:50:00,68.5,68.5,30.03,NNW,328,2.0,3.0,100,0.00,,,0.13,376,Wunderground v.1.15,2013-05-05 20:50:00,
2013-05-05 10:55:00,68.7,68.7,30.02,NNW,329,2.0,3.0,100,0.00,,,0.13,392,Wunderground v.1.15,2013-05-05 20:55:00,
2013-05-05 11:00:00,69.1,68.8,30.03,NNW,332,2.0,2.0,99,0.00,,,0.13,410,Wunderground v.1.15,2013-05-05 21:00:00,
2013-05-05 11:10:00,69.9,69.0,30.02,NNW,336,1.0,1.0,97,0.00,,,0.13,554,Wunderground v.1.15,2013-05-05 21:10:00,
2013-05-05 11:15:00,70.4,69.2,30.02,NNW,336,0.0,1.0,96,0.00,,,0.13,654,Wunderground v.1.15,2013-05-05 21:15:00,
2013-05-05 11:25:00,71.1,68.7,30.02,NNW,336,1.0,1.0,92,0.00,,,0.13,411,Wunderground v.1.15,2013-05-05 21:25:00,
2013-05-05 11:30:00,71.1,67.7,30.02,NNW,336,1.0,1.0,89,0.00,,,0.13,387,Wunderground v.1.15,2013-05-05 21:30:00,
2013-05-05 11:35:00,71.5,68.4,30.02,NNW,336,0.0,4.0,90,0.00,,,0.13,446,Wunderground v.1.15,2013-05-05 21:35:00,
2013-05-05 11:40:00,71.7,68.0,30.01,NNW,336,2.0,3.0,88,0.00,,,0.13,538,Wunderground v.1.15,2013-05-05 21:40:00,
2013-05-05 11:45:00,72.1,68.3,30.01,NNW,336,2.0,3.0,88,0.00,,,0.13,997,Wunderground v.1.15,2013-05-05 21:45:00,
2013-05-05 11:50:00,72.7,69.3,30.01,NNW,336,1.0,3.0,89,0.00,,,0.13,782,Wunderground v.1.15,2013-05-05 21:50:00,
2013-05-05 11:55:00,73.4,69.6,30.01,NNW,336,0.0,3.0,88,0.00,,,0.13,615,Wunderground v.1.15,2013-05-05 21:55:00,
2013-05-05 12:00:00,73.5,68.7,30.00,NNW,336,1.0,2.0,85,0.00,,,0.13,552,Wunderground v.1.15,2013-05-05 22:00:00,
2013-05-05 12:10:00,73.7,68.6,30.00,NNW,336,1.0,3.0,84,0.00,,,0.13,399,Wunderground v.1.15,2013-05-05 22:10:00,
2013-05-05 12:15:00,73.8,68.7,30.00,NNW,336,1.0,3.0,84,0.00,,,0.13,380,Wunderground v.1.15,2013-05-05 22:15:00,
2013-05-05 12:20:00,74.1,69.0,30.00,NNW,336,1.0,4.0,84,0.00,,,0.13,320,Wunderground v.1.15,2013-05-05 22:20:00,
2013-05-05 12:25:00,74.1,69.0,30.00,NNW,336,1.0,4.0,84,0.00,,,0.13,302,Wunderground v.1.15,2013-05-05 22:25:00,
2013-05-05 12:30:00,74.2,69.4,30.00,NE,47,1.0,4.0,85,0.00,,,0.13,295,Wunderground v.1.15,2013-05-05 22:30:00,
2013-05-05 12:35:00,74.0,69.5,29.99,ENE,69,2.0,4.0,86,0.00,,,0.13,338,Wunderground v.1.15,2013-05-05 22:35:00,
2013-05-05 12:40:00,73.7,69.6,29.99,ENE,69,3.0,3.0,87,0.00,,,0.13,336,Wunderground v.1.15,2013-05-05 22:40:00,
2013-05-05 12:45:00,73.5,69.7,29.99,ENE,69,3.0,3.0,88,0.00,,,0.13,362,Wunderground v.1.15,2013-05-05 22:45:00,
2013-05-05 12:55:00,73.2,69.8,29.98,ESE,119,3.0,5.0,89,0.00,,,0.13,341,Wunderground v.1.15,2013-05-05 22:55:00,
2013-05-05 13:00:00,73.0,69.9,29.98,ESE,119,3.0,6.0,90,0.00,,,0.13,304,Wunderground v.1.15,2013-05-05 23:00:00,
2013-05-05 13:10:00,72.5,69.7,29.98,SE,135,4.0,4.0,91,0.00,,,0.13,271,Wunderground v.1.15,2013-05-05 23:10:00,
2013-05-05 13:15:00,72.0,69.2,29.98,SE,136,4.0,4.0,91,0.00,,,0.13,295,Wunderground v.1.15,2013-05-05 23:15:00,
2013-05-05 13:25:00,71.4,69.3,29.97,SE,136,3.0,3.0,93,0.00,,,0.13,359,Wunderground v.1.15,2013-05-05 23:25:00,
2013-05-05 13:30:00,71.5,69.7,29.97,SE,135,2.0,2.0,94,0.00,,,0.13,353,Wunderground v.1.15,2013-05-05 23:30:00,
2013-05-05 13:35:00,71.5,69.7,29.97,SE,135,1.0,2.0,94,0.00,,,0.13,436,Wunderground v.1.15,2013-05-05 23:35:00,
2013-05-05 13:40:00,71.9,70.7,29.97,SE,135,1.0,1.0,96,0.00,,,0.13,429,Wunderground v.1.15,2013-05-05 23:40:00,
2013-05-05 13:45:00,71.9,70.4,29.96,SE,136,0.0,1.0,95,0.00,,,0.13,450,Wunderground v.1.15,2013-05-05 23:45:00,
2013-05-05 13:50:00,72.0,70.5,29.96,SE,135,1.0,2.0,95,0.00,,,0.13,388,Wunderground v.1.15,2013-05-05 23:50:00,
2013-05-05 13:55:00,72.0,70.2,29.96,SE,135,1.0,2.0,94,0.00,,,0.13,387,Wunderground v.1.15,2013-05-05 23:55:00,
2013-05-05 14:00:00,72.2,70.4,29.96,SE,135,0.0,0.0,94,0.00,,,0.13,383,Wunderground v.1.15,2013-05-06 00:00:00,
2013-05-05 14:10:00,72.5,70.7,29.96,SE,135,0.0,1.0,94,0.00,,,0.13,265,Wunderground v.1.15,2013-05-06 00:10:00,
2013-05-05 14:15:00,72.4,69.9,29.95,SE,136,2.0,3.0,92,0.00,,,0.13,258,Wunderground v.1.15,2013-05-06 00:15:00,
2013-05-05 14:20:00,72.6,69.8,29.95,SE,136,2.0,4.0,91,0.00,,,0.13,246,Wunderground v.1.15,2013-05-06 00:20:00,
2013-05-05 14:30:00,72.9,70.1,29.95,SE,131,2.0,2.0,91,0.00,,,0.13,253,Wunderground v.1.15,2013-05-06 00:30:00,
2013-05-05 14:40:00,73.0,69.9,29.95,SE,131,1.0,2.0,90,0.00,,,0.13,279,Wunderground v.1.15,2013-05-06 00:40:00,
2013-05-05 14:45:00,73.0,69.9,29.95,SE,131,1.0,2.0,90,0.00,,,0.13,292,Wunderground v.1.15,2013-05-06 00:45:00,
2013-05-05 14:50:00,73.0,69.6,29.95,SE,131,0.0,0.0,89,0.00,,,0.13,348,Wunderground v.1.15,2013-05-06 00:50:00,
2013-05-05 14:55:00,73.2,70.1,29.95,SE,131,1.0,2.0,90,0.00,,,0.13,313,Wunderground v.1.15,2013-05-06 00:55:00,
2013-05-05 15:00:00,73.2,69.8,29.95,SE,131,2.0,2.0,89,0.00,,,0.13,246,Wunderground v.1.15,2013-05-06 01:00:00,
2013-05-05 15:10:00,73.1,69.7,29.94,SE,131,0.0,0.0,89,0.00,,,0.13,230,Wunderground v.1.15,2013-05-06 01:10:00,
2013-05-05 15:15:00,73.2,69.8,29.95,SE,131,0.0,0.0,89,0.00,,,0.13,186,Wunderground v.1.15,2013-05-06 01:15:00,
2013-05-05 15:20:00,73.4,70.0,29.94,SE,131,0.0,4.0,89,0.00,,,0.13,153,Wunderground v.1.15,2013-05-06 01:20:00,
2013-05-05 15:25:00,73.2,69.8,29.94,SE,132,2.0,4.0,89,0.00,,,0.13,148,Wunderground v.1.15,2013-05-06 01:25:00,
2013-05-05 15:30:00,73.0,69.6,29.94,SE,132,3.0,3.0,89,0.00,,,0.13,148,Wunderground v.1.15,2013-05-06 01:30:00,
2013-05-05 15:40:00,72.7,69.6,29.94,SE,132,2.0,2.0,90,0.00,,,0.13,169,Wunderground v.1.15,2013-05-06 01:40:00,
2013-05-05 15:50:00,72.6,69.2,29.94,SE,132,1.0,1.0,89,0.00,,,0.13,130,Wunderground v.1.15,2013-05-06 01:50:00,
2013-05-05 15:55:00,72.6,69.2,29.94,SE,132,1.0,1.0,89,0.00,,,0.13,116,Wunderground v.1.15,2013-05-06 01:55:00,
2013-05-05 16:00:00,72.6,69.2,29.94,SE,132,0.0,0.0,89,0.00,,,0.13,116,Wunderground v.1.15,2013-05-06 02:00:00,
2013-05-05 16:10:00,72.6,69.2,29.94,SE,132,1.0,2.0,89,0.00,,,0.13,114,Wunderground v.1.15,2013-05-06 02:10:00,
2013-05-05 16:15:00,72.6,69.2,29.93,SE,132,2.0,2.0,89,0.00,,,0.13,121,Wunderground v.1.15,2013-05-06 02:15:00,
2013-05-05 16:20:00,72.5,69.1,29.94,SE,132,2.0,2.0,89,0.00,,,0.13,107,Wunderground v.1.15,2013-05-06 02:20:00,
2013-05-05 16:25:00,72.5,69.1,29.93,SE,132,1.0,2.0,89,0.00,,,0.13,102,Wunderground v.1.15,2013-05-06 02:25:00,
2013-05-05 16:30:00,72.6,69.2,29.93,SE,132,0.0,0.0,89,0.00,,,0.13,111,Wunderground v.1.15,2013-05-06 02:30:00,
2013-05-05 16:35:00,72.6,69.2,29.94,SE,132,0.0,0.0,89,0.00,,,0.13,116,Wunderground v.1.15,2013-05-06 02:35:00,
2013-05-05 16:40:00,72.6,69.2,29.93,SE,132,0.0,2.0,89,0.00,,,0.13,100,Wunderground v.1.15,2013-05-06 02:40:00,
2013-05-05 16:45:00,72.5,69.1,29.93,SE,132,1.0,2.0,89,0.00,,,0.13,105,Wunderground v.1.15,2013-05-06 02:45:00,
2013-05-05 16:50:00,72.5,69.1,29.93,SE,132,1.0,1.0,89,0.00,,,0.13,109,Wunderground v.1.15,2013-05-06 02:50:00,
2013-05-05 17:00:00,72.6,69.2,29.94,SE,132,0.0,0.0,89,0.00,,,0.13,118,Wunderground v.1.15,2013-05-06 03:00:00,
2013-05-05 17:10:00,72.8,69.7,29.93,SE,132,0.0,0.0,90,0.00,,,0.13,100,Wunderground v.1.15,2013-05-06 03:10:00,
2013-05-05 17:15:00,72.7,69.3,29.94,SE,132,1.0,1.0,89,0.00,,,0.13,69,Wunderground v.1.15,2013-05-06 03:15:00,
2013-05-05 17:20:00,72.7,69.3,29.94,SE,132,1.0,1.0,89,0.00,,,0.13,67,Wunderground v.1.15,2013-05-06 03:20:00,
2013-05-05 17:25:00,72.6,69.2,29.94,SE,132,0.0,1.0,89,0.00,,,0.13,54,Wunderground v.1.15,2013-05-06 03:25:00,
2013-05-05 17:30:00,72.6,69.2,29.94,SE,132,0.0,2.0,89,0.00,,,0.13,47,Wunderground v.1.15,2013-05-06 03:30:00,
2013-05-05 17:40:00,72.5,69.4,29.95,SE,132,1.0,1.0,90,0.00,,,0.13,51,Wunderground v.1.15,2013-05-06 03:40:00,
2013-05-05 17:45:00,72.4,69.6,29.94,SE,132,0.0,1.0,91,0.00,,,0.13,42,Wunderground v.1.15,2013-05-06 03:45:00,
2013-05-05 17:50:00,72.3,69.5,29.95,SE,132,0.0,0.0,91,0.00,,,0.13,37,Wunderground v.1.15,2013-05-06 03:50:00,
2013-05-05 17:55:00,72.3,69.8,29.95,SE,132,0.0,0.0,92,0.00,,,0.13,37,Wunderground v.1.15,2013-05-06 03:55:00,
2013-05-05 18:00:00,72.3,69.5,29.95,SE,132,0.0,0.0,91,0.00,,,0.13,35,Wunderground v.1.15,2013-05-06 04:00:00,
2013-05-05 18:05:00,72.2,69.4,29.95,SE,132,0.0,0.0,91,0.00,,,0.13,32,Wunderground v.1.15,2013-05-06 04:05:00,
2013-05-05 18:10:00,72.2,69.4,29.95,SE,132,0.0,0.0,91,0.00,,,0.13,26,Wunderground v.1.15,2013-05-06 04:10:00,
2013-05-05 18:15:00,72.2,69.4,29.95,SE,132,0.0,0.0,91,0.00,,,0.13,16,Wunderground v.1.15,2013-05-06 04:15:00,
2013-05-05 18:20:00,72.2,69.4,29.95,SE,132,0.0,0.0,91,0.00,,,0.13,7,Wunderground v.1.15,2013-05-06 04:20:00,
2013-05-05 18:25:00,72.1,69.6,29.96,SE,132,0.0,0.0,92,0.00,,,0.13,0,Wunderground v.1.15,2013-05-06 04:25:00,
2013-05-05 18:30:00,72.0,69.2,29.96,SE,132,0.0,0.0,91,0.00,,,0.13,0,Wunderground v.1.15,2013-05-06 04:30:00,
2013-05-05 18:35:00,71.9,69.4,29.95,SE,132,0.0,0.0,92,0.00,,,0.13,0,Wunderground v.1.15,2013-05-06 04:35:00,
2013-05-05 18:40:00,72.1,70.0,29.96,SE,132,0.0,0.0,93,0.00,,,0.13,0,Wunderground v.1.15,2013-05-06 04:40:00,
2013-05-05 18:45:00,72.0,70.2,29.96,SE,132,0.0,0.0,94,0.00,,,0.13,0,Wunderground v.1.15,2013-05-06 04:45:00,
2013-05-05 18:50:00,71.8,70.0,29.96,SE,132,0.0,0.0,94,0.00,,,0.13,0,Wunderground v.1.15,2013-05-06 04:50:00,
2013-05-05 18:55:00,71.5,69.7,29.96,SE,132,0.0,1.0,94,0.00,,,0.13,0,Wunderground v.1.15,2013-05-06 04:55:00,
2013-05-05 19:00:00,71.3,69.8,29.97,SE,132,1.0,1.0,95,0.00,,,0.13,0,Wunderground v.1.15,2013-05-06 05:00:00,
2013-05-05 19:10:00,71.0,69.5,29.97,SE,132,0.0,0.0,95,0.00,,,0.13,0,Wunderground v.1.15,2013-05-06 05:10:00,
2013-05-05 19:15:00,70.9,69.7,29.97,SE,132,0.0,0.0,96,0.00,,,0.13,0,Wunderground v.1.15,2013-05-06 05:15:00,
2013-05-05 19:25:00,70.3,69.1,29.97,SE,132,0.0,2.0,96,0.00,,,0.13,0,Wunderground v.1.15,2013-05-06 05:25:00,
2013-05-05 19:30:00,69.9,69.0,29.98,SE,132,2.0,2.0,97,0.00,,,0.13,0,Wunderground v.1.15,2013-05-06 05:30:00,
2013-05-05 19:40:00,69.4,68.8,29.98,SE,132,2.0,2.0,98,0.00,,,0.13,0,Wunderground v.1.15,2013-05-06 05:40:00,
2013-05-05 19:45:00,69.3,68.7,29.98,SE,132,1.0,2.0,98,0.00,,,0.13,0,Wunderground v.1.15,2013-05-06 05:45:00,
2013-05-05 19:50:00,69.1,68.5,29.98,SE,132,1.0,2.0,98,0.00,,,0.13,0,Wunderground v.1.15,2013-05-06 05:50:00,
2013-05-05 19:55:00,69.0,68.4,29.98,SE,132,2.0,2.0,98,0.00,,,0.13,0,Wunderground v.1.15,2013-05-06 05:55:00,
2013-05-05 20:00:00,68.8,68.2,29.98,SE,132,1.0,1.0,98,0.00,,,0.13,0,Wunderground v.1.15,2013-05-06 06:00:00,
2013-05-05 20:10:00,68.5,67.9,29.98,SE,132,0.0,0.0,98,0.00,,,0.13,0,Wunderground v.1.15,2013-05-06 06:10:00,
2013-05-05 20:15:00,68.3,68.0,29.98,SE,132,0.0,0.0,99,0.00,,,0.13,0,Wunderground v.1.15,2013-05-06 06:15:00,
2013-05-05 20:20:00,68.3,68.0,29.99,SE,132,0.0,0.0,99,0.00,,,0.13,0,Wunderground v.1.15,2013-05-06 06:20:00,
2013-05-05 20:25:00,68.1,67.8,29.99,SE,132,0.0,0.0,99,0.00,,,0.13,0,Wunderground v.1.15,2013-05-06 06:25:00,
2013-05-05 20:30:00,68.0,67.7,29.99,SE,132,0.0,0.0,99,0.00,,,0.13,0,Wunderground v.1.15,2013-05-06 06:30:00,
2013-05-05 20:35:00,68.0,67.7,29.99,SE,132,0.0,0.0,99,0.00,,,0.13,0,Wunderground v.1.15,2013-05-06 06:35:00,
2013-05-05 20:45:00,68.0,67.7,30.00,SE,132,0.0,0.0,99,0.00,,,0.13,0,Wunderground v.1.15,2013-05-06 06:45:00,
2013-05-05 20:50:00,67.9,67.6,30.00,SE,132,0.0,0.0,99,0.00,,,0.13,0,Wunderground v.1.15,2013-05-06 06:50:00,
2013-05-05 21:00:00,67.7,67.7,30.00,SE,132,0.0,0.0,100,0.00,,,0.13,0,Wunderground v.1.15,2013-05-06 07:00:00,
2013-05-05 21:10:00,67.5,67.5,30.00,SE,132,0.0,2.0,100,0.00,,,0.13,0,Wunderground v.1.15,2013-05-06 07:10:00,
2013-05-05 21:15:00,67.4,67.4,30.00,SE,132,1.0,2.0,100,0.00,,,0.13,0,Wunderground v.1.15,2013-05-06 07:15:00,
2013-05-05 21:25:00,67.5,67.5,30.00,SE,132,2.0,2.0,100,0.00,,,0.13,0,Wunderground v.1.15,2013-05-06 07:25:00,
2013-05-05 21:30:00,67.5,67.5,30.00,SE,132,0.0,3.0,100,0.00,,,0.13,0,Wunderground v.1.15,2013-05-06 07:30:00,
2013-05-05 21:35:00,67.6,67.6,30.00,SE,132,1.0,3.0,100,0.00,,,0.13,0,Wunderground v.1.15,2013-05-06 07:35:00,
2013-05-05 21:40:00,67.7,67.7,30.00,SE,132,2.0,2.0,100,0.00,,,0.13,0,Wunderground v.1.15,2013-05-06 07:40:00,
2013-05-05 21:45:00,67.9,67.9,30.00,SE,132,1.0,2.0,100,0.00,,,0.13,0,Wunderground v.1.15,2013-05-06 07:45:00,
2013-05-05 21:50:00,68.0,67.7,30.00,SE,132,0.0,2.0,99,0.00,,,0.13,0,Wunderground v.1.15,2013-05-06 07:50:00,
2013-05-05 22:00:00,68.2,67.9,30.00,SE,132,2.0,2.0,99,0.00,,,0.13,0,Wunderground v.1.15,2013-05-06 08:00:00,
2013-05-05 22:10:00,68.4,68.1,30.00,SE,132,0.0,0.0,99,0.00,,,0.13,0,Wunderground v.1.15,2013-05-06 08:10:00,
2013-05-05 22:15:00,68.5,68.2,30.01,SE,130,0.0,1.0,99,0.00,,,0.13,0,Wunderground v.1.15,2013-05-06 08:15:00,
2013-05-05 22:20:00,68.5,67.9,30.01,SE,130,1.0,2.0,98,0.00,,,0.13,0,Wunderground v.1.15,2013-05-06 08:20:00,
2013-05-05 22:25:00,68.5,67.9,30.01,SE,130,1.0,2.0,98,0.00,,,0.13,0,Wunderground v.1.15,2013-05-06 08:25:00,
2013-05-05 22:30:00,68.4,67.8,30.01,SE,130,1.0,1.0,98,0.00,,,0.13,0,Wunderground v.1.15,2013-05-06 08:30:00,
2013-05-05 22:35:00,68.4,67.8,30.01,SE,130,0.0,1.0,98,0.00,,,0.13,0,Wunderground v.1.15,2013-05-06 08:35:00,
2013-05-05 22:40:00,68.3,67.7,30.01,SE,130,0.0,0.0,98,0.00,,,0.13,0,Wunderground v.1.15,2013-05-06 08:40:00,
2013-05-05 22:50:00,67.9,67.3,30.01,SE,130,0.0,0.0,98,0.00,,,0.13,0,Wunderground v.1.15,2013-05-06 08:50:00,
2013-05-05 22:55:00,67.7,67.1,30.01,SE,130,0.0,0.0,98,0.00,,,0.13,0,Wunderground v.1.15,2013-05-06 08:55:00,
2013-05-05 23:00:00,67.6,67.0,30.01,SE,130,0.0,3.0,98,0.00,,,0.13,0,Wunderground v.1.15,2013-05-06 09:00:00,
2013-05-05 23:10:00,67.3,67.0,30.01,SE,130,2.0,2.0,99,0.00,,,0.13,0,Wunderground v.1.15,2013-05-06 09:10:00,
2013-05-05 23:20:00,67.3,67.0,30.01,SE,130,2.0,2.0,99,0.00,,,0.13,0,Wunderground v.1.15,2013-05-06 09:20:00,
2013-05-05 23:30:00,67.1,66.8,30.00,SE,130,1.0,1.0,99,0.00,,,0.13,0,Wunderground v.1.15,2013-05-06 09:30:00,
2013-05-05 23:35:00,67.0,66.7,30.00,SE,130,1.0,1.0,99,0.00,,,0.13,0,Wunderground v.1.15,2013-05-06 09:35:00,
2013-05-05 23:40:00,67.0,66.7,30.00,SE,130,1.0,1.0,99,0.00,,,0.13,0,Wunderground v.1.15,2013-05-06 09:40:00,
2013-05-05 23:45:00,67.0,66.7,30.00,SE,130,1.0,1.0,99,0.00,,,0.13,0,Wunderground v.1.15,2013-05-06 09:45:00,
2013-05-05 23:50:00,67.0,66.7,30.00,SE,130,2.0,2.0,99,0.00,,,0.13,0,Wunderground v.1.15,2013-05-06 09:50:00,
2013-05-05 23:55:00,66.9,66.6,30.00,SE,130,2.0,2.0,99,0.00,,,0.00,0,Wunderground v.1.15,2013-05-06 09:55:00,